| time (UTC) | temp F | wind direction | speed MPH | gust MPH | rain 1hr in | rain 24hr in | rain mn in | humidity % | barometer mb |
| 20260903081112 | 64 | 185 | 3.0 | 6.0 | 0.00 | 0.00 | 0.00 | 66 | |
| 20260903074112 | 64 | 242 | 2.0 | 6.0 | 0.00 | 0.00 | 0.00 | 67 | |
| 20260903071112 | 62 | 207 | 4.0 | 6.0 | 0.00 | 0.00 | 0.00 | 72 | |
| 20260903064111 | 62 | 194 | 3.0 | 5.0 | 0.00 | 0.00 | 0.00 | 69 | |
| 20260903061112 | 61 | 180 | 3.0 | 5.0 | 0.00 | 0.00 | 0.00 | 71 | |
| 20260903054111 | 60 | 176 | 3.0 | 6.0 | 0.00 | 0.00 | 0.00 | 72 | |
| 20260903051112 | 60 | 181 | 3.0 | 5.0 | 0.00 | 0.00 | 0.00 | 73 | |
| 20260903044111 | 60 | 189 | 3.0 | 6.0 | 0.00 | 0.00 | 0.00 | 72 | |
| 20260903041111 | 60 | 185 | 4.0 | 6.0 | 0.00 | 0.00 | 0.00 | 71 | |
| 20260903031112 | 63 | 213 | 3.0 | 6.0 | 0.00 | 0.00 | 0.00 | 61 | |
| 20260903021111 | 65 | 209 | 2.0 | 6.0 | 0.00 | 0.00 | 0.00 | 55 | |
| 20260903014111 | 64 | 331 | 1.0 | 2.0 | 0.00 | 0.00 | 0.00 | 56 | |
| 20260903011112 | 64 | 232 | 2.0 | 5.0 | 0.00 | 0.00 | 0.00 | 56 | |
| 20260903004112 | 64 | 7 | 1.0 | 3.0 | 0.00 | 0.00 | 0.00 | 57 | |
| 20260903001511 | 64 | 346 | 2.0 | 4.0 | 0.00 | 0.00 | 0.00 | 58 | |
| 20260902234112 | 64 | 338 | 3.0 | 6.0 | 0.00 | 0.00 | 0.00 | 60 | |
| 20260902224112 | 64 | 308 | 2.0 | 8.0 | 0.00 | 0.00 | 0.00 | 65 | |
| 20260902221112 | 64 | 272 | 2.0 | 6.0 | 0.00 | 0.00 | 0.00 | 64 | |
| 20260902214112 | 64 | 117 | 2.0 | 6.0 | 0.00 | 0.00 | 0.00 | 63 | |
| 20260902211112 | 64 | 40 | 3.0 | 4.0 | 0.00 | 0.00 | 0.00 | 64 | |
| 20260902204113 | 64 | 58 | 2.0 | 3.0 | 0.00 | 0.00 | 0.00 | 64 | |
| 20260902201112 | 64 | 77 | 1.0 | 2.0 | 0.00 | 0.00 | 0.00 | 64 | |
| 20260902194112 | 65 | 78 | 1.0 | 2.0 | 0.00 | 0.00 | 0.00 | 64 | |
| 20260902191112 | 65 | 181 | 2.0 | 3.0 | 0.00 | 0.00 | 0.00 | 64 | |
| 20260902184112 | 65 | 223 | 2.0 | 4.0 | 0.00 | 0.00 | 0.00 | 64 | |
| 20260902181112 | 65 | 340 | 3.0 | 10.0 | 0.00 | 0.00 | 0.00 | 63 | |
| 20260902174112 | 66 | 349 | 3.0 | 9.0 | 0.00 | 0.00 | 0.00 | 65 | |
| 20260902171112 | 67 | 352 | 2.0 | 7.0 | 0.00 | 0.00 | 0.00 | 63 | |
| 20260902164112 | 69 | 311 | 3.0 | 7.0 | 0.00 | 0.00 | 0.00 | 61 | |
| 20260902161112 | 70 | 303 | 4.0 | 9.0 | 0.00 | 0.00 | 0.00 | 60 | |
| 20260902154112 | 72 | 275 | 3.0 | 12.0 | 0.00 | 0.00 | 0.00 | 61 | |
| 20260902151112 | 72 | 246 | 4.0 | 13.0 | 0.00 | 0.00 | 0.00 | 60 | |
| 20260902144112 | 72 | 255 | 4.0 | 11.0 | 0.00 | 0.00 | 0.00 | 59 | |
| 20260902141112 | 71 | 309 | 3.0 | 9.0 | 0.00 | 0.00 | 0.00 | 61 | |
| 20260902134110 | 70 | 288 | 3.0 | 9.0 | 0.00 | 0.00 | 0.00 | 63 | |
| 20260902131112 | 70 | 243 | 3.0 | 9.0 | 0.00 | 0.00 | 0.00 | 64 | |
| 20260902124111 | 70 | 262 | 3.0 | 9.0 | 0.00 | 0.00 | 0.00 | 64 | |
| 20260902121112 | 71 | 234 | 4.0 | 11.0 | 0.00 | 0.00 | 0.00 | 64 | |
| 20260902114112 | 71 | 244 | 4.0 | 12.0 | 0.00 | 0.00 | 0.00 | 62 | |
| 20260902111112 | 69 | 239 | 4.0 | 8.0 | 0.00 | 0.00 | 0.00 | 61 | |
| 20260902104112 | 68 | 267 | 4.0 | 7.0 | 0.00 | 0.00 | 0.00 | 63 | |
| 20260902101112 | 67 | 244 | 4.0 | 8.0 | 0.00 | 0.00 | 0.00 | 64 | |
| 20260902094112 | 66 | 253 | 3.0 | 8.0 | 0.00 | 0.00 | 0.00 | 65 | |
| 20260902091111 | 65 | 245 | 4.0 | 7.0 | 0.00 | 0.00 | 0.00 | 68 | |
| 20260902084111 | 64 | 235 | 3.0 | 5.0 | 0.00 | 0.00 | 0.00 | 70 |